GORIZONT 30

Satellite information

Favourite Embed

Satellite Type and Status

PAYLOADIN ORBIT

Key statistics

Satellite GORIZONT 30 at a glance.

Uptime

11481

Days in orbit

Revolutions

≈ 1.0

Per day

Orbit

OTHER

Other

Inclination

14.2

Latest

Satellite identification and parameters

Extended collection of information and parameters for GORIZONT 30.

Object identification

Identified? True

Debris? False

Object name: GORIZONT 30

International designator: 1994-030A

Object number (NORAD): 23108

Object ID (CCSDS): 23108

Country: COMMONWEALTH OF INDEPENDENT STATES (CIS)

Current information (Y/N): Y

RCS size: LARGE

Orbital parameters

Period: 1436.476 minutes

Inclination: 14.1592 deg

SMA: 42172.154 km

Apoapsis: 35820.773 km

Periapsis: 35767.264 km

RAAN: 349.9384 deg

Eccentricy: 0.00063441

Argument of periapsis: 260.3017 deg

Mean anomaly: 107.7534 deg

Mean motion: 1.00245316 rev/day

Mean motion (dot): -0.00000201 rev/day2

B* drag term: 0.0 1/REarth

Two-line elements (TLE)

Creation date: Oct. 24, 2025, 6:33 p.m.

Reference frame: TEME

Reference center: EARTH

Epoch: Oct. 23, 2025, 11:19 p.m. UTC

TLE line 0: 0 GORIZONT 30

TLE line 1: 1 23108U 94030A 25296.97187260 -.00000201 00000-0 00000-0 0 9998

TLE line 2: 2 23108 14.1592 349.9384 0006344 260.3017 107.7534 1.00245316115099

Live tracking on map

Real-time ground track for satellite GORIZONT 30.

In-orbit conjunctions

A list of the most updated potential collisions computed for object GORIZONT 30.

Target Orbit TCA Probability of collision Miss distance Type
COSMOS 637 GEO 2025-05-04 22:00:43 TBA 4939.0 (m) PAYLOAD
COSMOS 1897 DEB OTHER 2025-04-07 14:35:37 TBA 718.0 (m) DEBRIS
GORIZONT 32 OTHER 2024-08-03 09:02:14 TBA 4208.0 (m) PAYLOAD
SL-12 R/B(2) OTHER 2024-06-08 20:48:51 TBA 1500.0 (m) ROCKET BODY

Associated space launch

The geostationary Gorizont satellites are part of the Russian YeSSS Unified Satellite Communication System. These satellites provided civilian and military telephone, telegraph, and facsimile communications services, in addition to relaying TV and radio broadcasts. Gorizont also supported maritime and international communications from 1988 as an element of the Okean system operating at 1.5 to 1.6 GHz. The Gorizont system occupies 10 position on the geostationary orbit.

GORIZONT 30 was lifted into orbit during the mission ‘Proton | Rimsat G2’, on board a Proton space rocket.

The launch took place on May 20, 1994, 2:01 a.m. from 81/23 (81L).

For more information about the launch, click the button.

Launch to space Proton | Rimsat G2
Proton | Rimsat G2

Agency: N/A

Status: Launch Successful

Launch date: May 20, 1994, 2:01 a.m. UTC

Rocket: Proton

Launch pad: 81/23 (81L)

Location: Baikonur Cosmodrome, Republic of Kazakhstan

...

Latest news about this satellite

There are no fresh news available about this satellite. Check back as we update our databases every day.


Newsletter sign-up

Weekly statistics, charts and insights to help you stay on top of the space industry.